User: anonymous   Login
Location: Prague
(50.0830°N, 14.4670°E)
Time: 21:47:54
(UTC+01:00)
Language:

AO-73 - Orbit

View from above orbital plane
View from above orbital plane
View from above satellite
View from above satellite

Ground track
Ground track

The orbit data is extracted from the following two-line orbital elements,

1 39444U 13066AE  21338.92443237  .00000798  00000-0  10288-3 0  9997
2 39444  97.6022 316.9986 0056389 312.8979  46.7508 14.82650514432694
Epoch (UTC): 04 December 2021 22:11:10
Eccentricity: 0.0056389
inclination: 97.6022°
perigee height: 581 km
apogee height: 660 km
right ascension of ascending node: 316.9986°
argument of perigee: 312.8979°
revolutions per day: 14.82650514
mean anomaly at epoch: 46.7508°
orbit number at epoch: 43269

The dashed part of the orbit path shows where the satellite is in the earth's shadow,  

DLR